Weather History for New Orleans Lakefront, LA

Change the Weather History Date:

Wednesday, March 27, 2013

  Actual Average Record
Temperature  
Mean Temperature 50 °F 65 °F  
Max Temperature 60 °F 74 °F 85 °F (2011)
Min Temperature 40 °F 55 °F 30 °F (1955)
Degree Days  
Heating Degree Days 15 3  
Month to date heating degree days 195 125  
Since 1 July heating degree days 1084 1234  
Cooling Degree Days 0 3  
Month to date cooling degree days 30 51  
Year to date cooling degree days 62 88  
Growing Degree Days 4 (Base 50)    
Moisture  
Dew Point 34 °F    
Average Humidity 57    
Maximum Humidity 80    
Minimum Humidity 33    
Precipitation  
Precipitation 0.00 in 0.15 in 2.53 in (1960)
Month to date precipitation 0.74 3.94  
Year to date precipitation 14.54 14.39  
Snow  
Snow 0.00 in - - ()
Month to date snowfall 0.0  
Since 1 July snowfall 0.0  
Snow Depth 0.00 in    
Sea Level Pressure  
Sea Level Pressure 30.36 in    
Wind  
Wind Speed 6 mph (ENE)    
Max Wind Speed 16 mph    
Max Gust Speed 21 mph    
Visibility 10 miles    
Events      
T = Trace of Precipitation, MM = Missing Value Source: NWS Daily Summary

Daily Weather History Graph

Daily Weather History Graph

Search for Another Location

Airport:

Trip Planner

Search our weather history database for the weather conditions in past years. The results will help you decide how hot, cold, wet, or windy it might be!

Date:

Astronomy

Mar. 27, 2013 Rise Set
Actual Time 6:55 AM CDT 7:15 PM CDT
Civil Twilight 6:31 AM CDT 7:39 PM CDT
Nautical Twilight 6:03 AM CDT 8:08 PM CDT
Astronomical Twilight 5:34 AM CDT 8:36 PM CDT
Moon 7:53 PM CDT (3/27) 6:49 AM CDT (3/27)
Length of Visible Light 13h 08m
Length of Day
12h 20m
Full, 100% of the Moon is Illuminated
Mar 27
Full
Apr 2
Last Quarter
Apr 10
New
Apr 18
First Quarter
Apr 25
Full

Hourly Weather History & Observations

Time (CDT) Temp. Dew Point Humidity Pressure Visibility Wind Dir Wind Speed Gust Speed Precip Events Conditions
12:53 AM 51.1 °F 33.1 °F 50% 30.38 in 10.0 mi NNE 21.9 mph - N/A   Clear
1:53 AM 50.0 °F 33.1 °F 52% 30.37 in 10.0 mi NE 17.3 mph - N/A   Clear
2:53 AM 48.9 °F 33.1 °F 54% 30.36 in 10.0 mi NE 15.0 mph - N/A   Clear
3:53 AM 48.9 °F 32.0 °F 52% 30.36 in 10.0 mi NE 12.7 mph - N/A   Clear
4:53 AM 48.0 °F 30.0 °F 50% 30.36 in 10.0 mi ENE 13.8 mph - N/A   Clear
5:53 AM 48.0 °F 32.0 °F 54% 30.38 in 10.0 mi ENE 11.5 mph - N/A   Clear
6:53 AM 46.9 °F 30.9 °F 54% 30.39 in 10.0 mi ENE 13.8 mph - N/A   Clear
7:53 AM 48.0 °F 33.1 °F 56% 30.41 in 10.0 mi NE 13.8 mph - N/A   Clear
8:53 AM 50.0 °F 34.0 °F 54% 30.43 in 10.0 mi ENE 12.7 mph - N/A   Clear
9:53 AM 53.1 °F 34.0 °F 48% 30.44 in 10.0 mi ENE 11.5 mph - N/A   Clear
10:53 AM 54.0 °F 34.0 °F 47% 30.44 in 10.0 mi ENE 5.8 mph - N/A   Clear
11:53 AM 55.9 °F 32.0 °F 40% 30.43 in 10.0 mi East 8.1 mph - N/A   Clear
12:53 PM 57.9 °F 30.9 °F 36% 30.40 in 10.0 mi NNE 5.8 mph - N/A   Clear
1:53 PM 60.1 °F 34.0 °F 38% 30.38 in 10.0 mi NNE 9.2 mph - N/A   Clear
2:53 PM 60.1 °F 36.0 °F 41% 30.35 in 10.0 mi NNE 9.2 mph - N/A   Clear
3:53 PM 61.0 °F 32.0 °F 34% 30.32 in 10.0 mi NNE 8.1 mph - N/A   Clear
4:53 PM 62.1 °F 30.9 °F 31% 30.31 in 10.0 mi Calm Calm - N/A   Clear
5:53 PM 62.1 °F 30.9 °F 31% 30.31 in 10.0 mi Calm Calm - N/A   Clear
6:53 PM 60.1 °F 33.1 °F 36% 30.30 in 10.0 mi Calm Calm - N/A   Clear
7:53 PM 57.0 °F 39.0 °F 51% 30.29 in 10.0 mi SE 5.8 mph - N/A   Clear
8:53 PM 55.9 °F 39.9 °F 55% 30.29 in 10.0 mi SSE 9.2 mph - N/A   Clear
9:53 PM 53.1 °F 39.9 °F 61% 30.31 in 10.0 mi South 8.1 mph - N/A   Clear
10:53 PM 53.1 °F 39.9 °F 61% 30.32 in 10.0 mi South 9.2 mph - N/A   Clear
11:53 PM 52.0 °F 41.0 °F 66% 30.32 in 10.0 mi South 9.2 mph - N/A   Clear